Regional Weather Roundup
Issued by NWS Albany, NY

Home | Current Version | Previous Version | Graphics & Text | Print | Product List | Glossary Off
Versions: 1 2 3 4 5 6 7 8 9 10 11 12 13 14 15 16 17 18 19 20 21 22 23 24 25 26 27 28 29 30 31 32 33 34 35 36 37 38 39 40 41 42 43 44 45 46 47 48 49 50

000
ASUS41 KALY 280010
RWRALY

NEW YORK STATE HOURLY WEATHER ROUNDUP
NATIONAL WEATHER SERVICE ALBANY NY
800 PM EDT WED MAY 27 2015

NOTE: "FAIR" INDICATES FEW OR NO CLOUDS BELOW 12,000 FEET WITH NO
SIGNIFICANT WEATHER AND/OR NO OBSTRUCTIONS TO VISIBILITY.

NYZ032-033-038>043-046>054-057>066-NYZ062>081-280100-
EAST


CITY           SKY/WX    TMP DP  RH WIND       PRES   REMARKS
ALBANY         CLOUDY    70  66  87 S10       30.06S
GLENS FALLS    CLOUDY    70  66  87 S8        30.04R
POUGHKEEPSIE   LGT RAIN  71  67  87 CALM      30.13R
NEWBURGH       MOCLDY    70  68  94 W6        30.14R
MONTGOMERY     CLOUDY    71  68  90 N3        30.12R
WHITE PLAINS   CLOUDY    67  64  90 S7        30.14R FOG
ISLIP          MOCLDY    67  60  78 SW18G25   30.15R
NEW YORK CITY  MOCLDY    71  60  68 VRB5      30.13R
CENTRAL PARK   LGT RAIN  75  64  68 CALM      30.16R
$$

NYZ005>009-017-018-044>046-055-056-280100-
CENTRAL


CITY           SKY/WX    TMP DP  RH WIND       PRES   REMARKS
FULTON         CLEAR     78  65  63 CALM      29.98S
SYRACUSE       MOCLDY    80  62  54 SW7       29.98R
ROME           CLEAR     79  60  52 SW7       30.01R
ELMIRA         CLEAR     79  60  52 SW7       30.03S
BINGHAMTON     PTCLDY    73  61  65 SW7       30.08R
MONTICELLO     MOCLDY    66  66 100 CALM      30.14R
$$

NYZ026>034-041>043-280100-
NORTH


CITY           SKY/WX    TMP DP  RH WIND       PRES   REMARKS
WATERTOWN      CLEAR     76  62  62 SW7       29.97R
FORT DRUM      NOT AVBL
MASSENA        CLEAR     77  59  53 SW14      29.93R
SARANAC LAKE   PTCLDY    73  58  59 SW10      30.01R
PLATTSBURGH    CLOUDY    69  64  84 SE3       29.95R
$$

NYZ001>004-010>016-019>021-280100-
WEST


CITY           SKY/WX    TMP DP  RH WIND       PRES   REMARKS
NIAGARA FALLS  CLOUDY    67  58  72 SW12      30.00S
BUFFALO        LGT RAIN  69  58  67 SW14G20   30.03R
DUNKIRK        TSTM      64  60  87 SW12G24   30.09R FOG
JAMESTOWN      CLOUDY    64  55  72 W15G21    30.12R
WELLSVILLE     PTCLDY    73  56  54 SW8       30.11R
ROCHESTER      MOCLDY    80  57  45 W9        29.99R
PENN YAN       CLEAR     79  58  48 SW5       30.02S
$$

             KEY
       WCI = WIND CHILL INDEX
       VSB = VISIBILITY
       HX  = HEAT INDEX
$$


USA.gov is the U.S. government's official web portal to all federal, state and local government web resources and services.